| time (UTC) | temp C | wind direction | speed KPH | gust KPH | rain 1hr cm | rain 24hr cm | rain mn cm | humidity % | barometer mb |
| 20260509203524 | 20 | 45 | 6.4 | 16.1 | 0.00 | 0.00 | 0.00 | 67 | 1015.4 |
| 20260509203004 | 20 | 45 | 4.8 | 11.3 | 0.00 | 0.00 | 0.00 | 67 | 1015.4 |
| 20260509202504 | 20 | 45 | 6.4 | 12.9 | 0.00 | 0.00 | 0.00 | 68 | 1015.4 |
| 20260509202004 | 20 | 45 | 4.8 | 14.5 | 0.00 | 0.00 | 0.00 | 68 | 1015.5 |
| 20260509201504 | 20 | 45 | 4.8 | 11.3 | 0.00 | 0.00 | 0.00 | 68 | 1015.5 |
| 20260509201024 | 20 | 68 | 4.8 | 9.7 | 0.00 | 0.00 | 0.00 | 69 | 1015.5 |
| 20260509200504 | 20 | 68 | 4.8 | 11.3 | 0.00 | 0.00 | 0.00 | 70 | 1015.7 |
| 20260509200004 | 20 | 68 | 4.8 | 11.3 | 0.00 | 0.00 | 0.00 | 70 | 1015.8 |
| 20260509195504 | 20 | 45 | 4.8 | 12.9 | 0.00 | 0.00 | 0.00 | 70 | 1015.8 |
| 20260509195024 | 19 | 68 | 4.8 | 11.3 | 0.00 | 0.00 | 0.00 | 70 | 1015.8 |
| 20260509194504 | 19 | 68 | 4.8 | 11.3 | 0.00 | 0.00 | 0.00 | 71 | 1015.7 |
| 20260509194004 | 19 | 45 | 6.4 | 12.9 | 0.00 | 0.00 | 0.00 | 71 | 1015.8 |
| 20260509193504 | 19 | 68 | 4.8 | 9.7 | 0.00 | 0.00 | 0.00 | 72 | 1015.7 |
| 20260509193004 | 19 | 45 | 4.8 | 8.0 | 0.00 | 0.00 | 0.00 | 72 | 1015.9 |
| 20260509192544 | 19 | 45 | 4.8 | 11.3 | 0.00 | 0.00 | 0.00 | 72 | 1015.9 |
| 20260509192004 | 19 | 45 | 6.4 | 14.5 | 0.00 | 0.00 | 0.00 | 71 | 1016.0 |
| 20260509191524 | 19 | 45 | 4.8 | 9.7 | 0.00 | 0.00 | 0.00 | 71 | 1016.0 |
| 20260509191004 | 18 | 45 | 4.8 | 9.7 | 0.00 | 0.00 | 0.00 | 71 | 1016.1 |
| 20260509190504 | 18 | 45 | 4.8 | 9.7 | 0.00 | 0.00 | 0.00 | 71 | 1016.1 |
| 20260509190024 | 18 | 68 | 3.2 | 9.7 | 0.00 | 0.00 | 0.00 | 71 | 1016.2 |
| 20260509185524 | 18 | 45 | 4.8 | 9.7 | 0.00 | 0.00 | 0.00 | 70 | 1016.1 |
| 20260509185004 | 18 | 45 | 4.8 | 11.3 | 0.00 | 0.00 | 0.00 | 70 | 1016.1 |
| 20260509184525 | 19 | 68 | 4.8 | 9.7 | 0.00 | 0.00 | 0.00 | 69 | 1016.2 |
| 20260509184004 | 20 | 45 | 4.8 | 11.3 | 0.00 | 0.00 | 0.00 | 66 | 1016.3 |
| 20260509183504 | 20 | 45 | 4.8 | 9.7 | 0.00 | 0.00 | 0.00 | 65 | 1016.3 |
| 20260509183024 | 20 | 45 | 3.2 | 9.7 | 0.00 | 0.00 | 0.00 | 65 | 1016.2 |
| 20260509182504 | 20 | 45 | 3.2 | 8.0 | 0.00 | 0.00 | 0.00 | 67 | 1016.2 |
| 20260509182003 | 20 | 68 | 1.6 | 8.0 | 0.00 | 0.00 | 0.00 | 68 | 1016.1 |
| 20260509181504 | 20 | 113 | 3.2 | 6.4 | 0.00 | 0.00 | 0.00 | 68 | 1016.2 |
| 20260509181004 | 19 | 135 | 1.6 | 4.8 | 0.00 | 0.00 | 0.00 | 68 | 1016.2 |
| 20260509180504 | 19 | 90 | 1.6 | 6.4 | 0.00 | 0.00 | 0.00 | 69 | 1016.3 |
| 20260509180004 | 18 | 45 | 1.6 | 6.4 | 0.00 | 0.00 | 0.00 | 69 | 1016.2 |
| 20260509175504 | 18 | 45 | 1.6 | 4.8 | 0.00 | 0.00 | 0.00 | 71 | 1016.3 |
| 20260509175004 | 18 | 45 | 3.2 | 6.4 | 0.00 | 0.00 | 0.00 | 70 | 1016.3 |
| 20260509174504 | 18 | 113 | 3.2 | 6.4 | 0.00 | 0.00 | 0.00 | 70 | 1016.4 |
| 20260509174004 | 18 | 68 | 3.2 | 6.4 | 0.00 | 0.00 | 0.00 | 70 | 1016.5 |
| 20260509173504 | 18 | 68 | 1.6 | 6.4 | 0.00 | 0.00 | 0.00 | 70 | 1016.6 |
| 20260509173004 | 18 | 45 | 3.2 | 6.4 | 0.00 | 0.00 | 0.00 | 70 | 1016.5 |
| 20260509172504 | 18 | 113 | 3.2 | 6.4 | 0.00 | 0.00 | 0.00 | 70 | 1016.5 |
| 20260509172004 | 18 | 68 | 3.2 | 6.4 | 0.00 | 0.00 | 0.00 | 70 | 1016.5 |
| 20260509171524 | 18 | 68 | 3.2 | 8.0 | 0.00 | 0.00 | 0.00 | 71 | 1016.4 |
| 20260509171024 | 17 | 68 | 1.6 | 4.8 | 0.00 | 0.00 | 0.00 | 72 | 1016.4 |
| 20260509170504 | 17 | 68 | 1.6 | 6.4 | 0.00 | 0.00 | 0.00 | 72 | 1016.4 |
| 20260509170024 | 17 | 135 | 1.6 | 4.8 | 0.00 | 0.00 | 0.00 | 72 | 1016.4 |
| 20260509165524 | 17 | 45 | 3.2 | 8.0 | 0.00 | 0.00 | 0.00 | 72 | 1016.4 |
| 20260509165004 | 17 | 68 | 3.2 | 6.4 | 0.00 | 0.00 | 0.00 | 71 | 1016.4 |
| 20260509164504 | 17 | 113 | 3.2 | 8.0 | 0.00 | 0.00 | 0.00 | 73 | 1016.5 |
| 20260509164004 | 17 | 113 | 1.6 | 3.2 | 0.00 | 0.00 | 0.00 | 74 | 1016.5 |
| 20260509163524 | 17 | 90 | 1.6 | 4.8 | 0.00 | 0.00 | 0.00 | 73 | 1016.5 |
| 20260509163004 | 17 | 68 | 1.6 | 4.8 | 0.00 | 0.00 | 0.00 | 73 | 1016.6 |
| 20260509162524 | 17 | 68 | 1.6 | 4.8 | 0.00 | 0.00 | 0.00 | 73 | 1016.5 |
| 20260509162004 | 17 | 315 | 1.6 | 4.8 | 0.00 | 0.00 | 0.00 | 73 | 1016.5 |
| 20260509161504 | 16 | 113 | 1.6 | 4.8 | 0.00 | 0.00 | 0.00 | 74 | 1016.6 |
| 20260509161004 | 16 | 113 | 1.6 | 3.2 | 0.00 | 0.00 | 0.00 | 75 | 1016.5 |
| 20260509160504 | 16 | 45 | 1.6 | 3.2 | 0.00 | 0.00 | 0.00 | 77 | 1016.6 |
| 20260509160004 | 15 | 248 | 1.6 | 3.2 | 0.00 | 0.00 | 0.00 | 78 | 1016.6 |
| 20260509155504 | 15 | 180 | 1.6 | 3.2 | 0.00 | 0.00 | 0.00 | 79 | 1016.6 |
| 20260509155004 | 14 | 113 | 1.6 | 3.2 | 0.00 | 0.00 | 0.00 | 81 | 1016.6 |
| 20260509154504 | 14 | 135 | 1.6 | 3.2 | 0.00 | 0.00 | 0.00 | 81 | 1016.6 |
| 20260509154004 | 14 | 135 | 1.6 | 3.2 | 0.00 | 0.00 | 0.00 | 81 | 1016.6 |
| 20260509153524 | 14 | 180 | 1.6 | 3.2 | 0.00 | 0.00 | 0.00 | 81 | 1016.7 |
| 20260509153004 | 14 | 180 | 1.6 | 3.2 | 0.00 | 0.00 | 0.00 | 82 | 1016.6 |
| 20260509152503 | 14 | 225 | 1.6 | 3.2 | 0.00 | 0.00 | 0.00 | 83 | 1016.6 |
| 20260509152024 | 13 | 158 | 1.6 | 4.8 | 0.00 | 0.00 | 0.00 | 83 | 1016.6 |
| 20260509151504 | 13 | 158 | 1.6 | 3.2 | 0.00 | 0.00 | 0.00 | 84 | 1016.6 |
| 20260509151004 | 13 | 158 | 1.6 | 4.8 | 0.00 | 0.00 | 0.00 | 84 | 1016.6 |
| 20260509150503 | 13 | 225 | 1.6 | 3.2 | 0.00 | 0.00 | 0.00 | 85 | 1016.7 |
| 20260509150044 | 13 | 203 | 1.6 | 4.8 | 0.00 | 0.00 | 0.00 | 86 | 1016.5 |
| 20260509145504 | 13 | 203 | 1.6 | 4.8 | 0.00 | 0.00 | 0.00 | 87 | 1016.7 |
| 20260509145004 | 13 | 180 | 1.6 | 3.2 | 0.00 | 0.00 | 0.00 | 88 | 1016.6 |
| 20260509144504 | 13 | 135 | 1.6 | 4.8 | 0.00 | 0.00 | 0.00 | 88 | 1016.6 |
| 20260509144004 | 12 | 203 | 1.6 | 3.2 | 0.00 | 0.00 | 0.00 | 88 | 1016.6 |
| 20260509143524 | 12 | 180 | 1.6 | 4.8 | 0.00 | 0.00 | 0.00 | 89 | 1016.4 |
| 20260509143003 | 12 | 158 | 1.6 | 3.2 | 0.00 | 0.00 | 0.00 | 89 | 1016.6 |
| 20260509142504 | 12 | 225 | 1.6 | 3.2 | 0.00 | 0.00 | 0.00 | 89 | 1016.5 |
| 20260509142004 | 12 | 203 | 1.6 | 4.8 | 0.00 | 0.00 | 0.00 | 89 | 1016.6 |
| 20260509141504 | 12 | 203 | 1.6 | 4.8 | 0.00 | 0.00 | 0.00 | 89 | 1016.6 |
| 20260509141004 | 12 | 0.0 | 3.2 | 0.00 | 0.00 | 0.00 | 89 | 1016.5 | |
| 20260509140503 | 12 | 0.0 | 3.2 | 0.00 | 0.00 | 0.00 | 89 | 1016.5 | |
| 20260509140005 | 12 | 203 | 1.6 | 3.2 | 0.00 | 0.00 | 0.00 | 90 | 1016.4 |
| 20260509135503 | 12 | 0.0 | 3.2 | 0.00 | 0.00 | 0.00 | 90 | 1016.3 | |
| 20260509135004 | 12 | 135 | 1.6 | 3.2 | 0.00 | 0.00 | 0.00 | 90 | 1016.2 |
| 20260509134503 | 12 | 0.0 | 1.6 | 0.00 | 0.00 | 0.00 | 90 | 1016.2 | |
| 20260509134003 | 12 | 203 | 1.6 | 3.2 | 0.00 | 0.00 | 0.00 | 90 | 1016.3 |
| 20260509133503 | 12 | 0.0 | 3.2 | 0.00 | 0.00 | 0.00 | 90 | 1016.3 | |
| 20260509133004 | 12 | 203 | 1.6 | 4.8 | 0.00 | 0.00 | 0.00 | 90 | 1016.1 |
| 20260509132524 | 12 | 0.0 | 3.2 | 0.00 | 0.00 | 0.00 | 90 | 1016.2 | |
| 20260509132004 | 12 | 0.0 | 1.6 | 0.00 | 0.00 | 0.00 | 90 | 1016.1 | |
| 20260509131503 | 12 | 135 | 1.6 | 3.2 | 0.00 | 0.00 | 0.00 | 90 | 1016.1 |
| 20260509131003 | 12 | 0.0 | 3.2 | 0.00 | 0.00 | 0.00 | 90 | 1016.1 | |
| 20260509130504 | 12 | 0.0 | 1.6 | 0.00 | 0.00 | 0.00 | 90 | 1016.1 | |
| 20260509130003 | 12 | 0.0 | 3.2 | 0.00 | 0.00 | 0.00 | 90 | 1016.2 | |
| 20260509125543 | 12 | 0.0 | 3.2 | 0.00 | 0.00 | 0.00 | 90 | 1016.1 | |
| 20260509125003 | 12 | 0.0 | 1.6 | 0.00 | 0.00 | 0.00 | 90 | 1016.1 | |
| 20260509124504 | 12 | 0.0 | 1.6 | 0.00 | 0.00 | 0.00 | 90 | 1016.2 | |
| 20260509124004 | 12 | 180 | 1.6 | 3.2 | 0.00 | 0.00 | 0.00 | 90 | 1016.1 |
| 20260509123503 | 12 | 0.0 | 3.2 | 0.00 | 0.00 | 0.00 | 91 | 1016.0 | |
| 20260509123003 | 12 | 0.0 | 1.6 | 0.00 | 0.00 | 0.00 | 91 | 1016.1 | |
| 20260509122503 | 12 | 0.0 | 1.6 | 0.00 | 0.00 | 0.00 | 91 | 1016.1 | |
| 20260509122003 | 12 | 225 | 1.6 | 3.2 | 0.00 | 0.00 | 0.00 | 91 | 1016.1 |
| 20260509121503 | 12 | 225 | 1.6 | 3.2 | 0.00 | 0.00 | 0.00 | 91 | 1016.1 |
| 20260509121003 | 12 | 0.0 | 3.2 | 0.00 | 0.00 | 0.00 | 91 | 1016.2 | |
| 20260509120503 | 12 | 0.0 | 1.6 | 0.00 | 0.00 | 0.00 | 91 | 1016.2 | |
| 20260509120144 | 12 | 0.0 | 1.6 | 0.00 | 0.00 | 0.00 | 91 | 1016.2 | |
| 20260509115503 | 12 | 158 | 1.6 | 3.2 | 0.00 | 0.00 | 0.00 | 91 | 1016.2 |
| 20260509115003 | 12 | 135 | 1.6 | 3.2 | 0.00 | 0.00 | 0.00 | 91 | 1016.2 |
| 20260509114503 | 12 | 203 | 1.6 | 3.2 | 0.00 | 0.00 | 0.00 | 91 | 1016.1 |
| 20260509114003 | 12 | 113 | 1.6 | 3.2 | 0.00 | 0.00 | 0.00 | 91 | 1016.2 |
| 20260509113503 | 11 | 0.0 | 1.6 | 0.00 | 0.00 | 0.00 | 91 | 1016.2 | |
| 20260509113003 | 11 | 0.0 | 1.6 | 0.00 | 0.00 | 0.00 | 91 | 1016.2 | |
| 20260509112503 | 11 | 0.0 | 3.2 | 0.00 | 0.00 | 0.00 | 91 | 1016.1 | |
| 20260509112003 | 11 | 0.0 | 1.6 | 0.00 | 0.00 | 0.00 | 91 | 1016.1 | |
| 20260509111503 | 11 | 113 | 1.6 | 6.4 | 0.00 | 0.00 | 0.00 | 91 | 1016.1 |
| 20260509111003 | 11 | 113 | 1.6 | 4.8 | 0.00 | 0.00 | 0.00 | 91 | 1016.1 |
| 20260509110503 | 11 | 0.0 | 3.2 | 0.00 | 0.00 | 0.00 | 91 | 1016.1 | |
| 20260509110003 | 11 | 0.0 | 1.6 | 0.00 | 0.00 | 0.00 | 91 | 1016.0 | |
| 20260509105503 | 11 | 0.0 | 1.6 | 0.00 | 0.00 | 0.00 | 91 | 1016.0 | |
| 20260509105003 | 11 | 0.0 | 1.6 | 0.00 | 0.00 | 0.00 | 91 | 1016.1 | |
| 20260509104523 | 11 | 0.0 | 1.6 | 0.00 | 0.00 | 0.00 | 91 | 1016.1 | |
| 20260509104003 | 11 | 0.0 | 3.2 | 0.00 | 0.00 | 0.00 | 91 | 1016.0 | |
| 20260509103505 | 11 | 0.0 | 1.6 | 0.00 | 0.00 | 0.00 | 91 | 1016.1 | |
| 20260509103005 | 11 | 0.0 | 1.6 | 0.00 | 0.00 | 0.00 | 91 | 1016.1 | |
| 20260509102525 | 11 | 0.0 | 1.6 | 0.00 | 0.00 | 0.00 | 91 | 1016.3 | |
| 20260509102005 | 11 | 0.0 | 1.6 | 0.00 | 0.00 | 0.00 | 91 | 1016.2 | |
| 20260509101505 | 11 | 0.0 | 1.6 | 0.00 | 0.00 | 0.00 | 91 | 1016.3 | |
| 20260509101025 | 11 | 0.0 | 1.6 | 0.00 | 0.00 | 0.00 | 91 | 1017.0 | |
| 20260509100505 | 11 | 0.0 | 1.6 | 0.00 | 0.00 | 0.00 | 91 | 1016.5 | |
| 20260509100005 | 11 | 0.0 | 1.6 | 0.00 | 0.00 | 0.00 | 90 | 1016.4 | |
| 20260509095505 | 11 | 0.0 | 1.6 | 0.00 | 0.00 | 0.00 | 90 | 1016.3 | |
| 20260509095005 | 10 | 0.0 | 1.6 | 0.00 | 0.00 | 0.00 | 90 | 1016.3 | |
| 20260509094525 | 10 | 0.0 | 1.6 | 0.00 | 0.00 | 0.00 | 90 | 1016.3 | |
| 20260509094004 | 10 | 0.0 | 1.6 | 0.00 | 0.00 | 0.00 | 90 | 1016.4 | |
| 20260509093525 | 10 | 0.0 | 1.6 | 0.00 | 0.00 | 0.00 | 90 | 1016.5 | |
| 20260509093005 | 10 | 0.0 | 1.6 | 0.00 | 0.00 | 0.00 | 89 | 1016.4 | |
| 20260509092505 | 10 | 0.0 | 1.6 | 0.00 | 0.00 | 0.00 | 89 | 1016.5 | |
| 20260509092005 | 10 | 0.0 | 1.6 | 0.00 | 0.00 | 0.00 | 89 | 1016.6 | |
| 20260509091505 | 10 | 0.0 | 1.6 | 0.00 | 0.00 | 0.00 | 89 | 1016.6 | |
| 20260509091005 | 10 | 0.0 | 1.6 | 0.00 | 0.00 | 0.00 | 89 | 1016.6 | |
| 20260509090504 | 10 | 0.0 | 1.6 | 0.00 | 0.00 | 0.00 | 88 | 1016.5 | |
| 20260509090005 | 10 | 0.0 | 1.6 | 0.00 | 0.00 | 0.00 | 88 | 1016.7 | |
| 20260509085505 | 10 | 0.0 | 1.6 | 0.00 | 0.00 | 0.00 | 88 | 1016.7 | |
| 20260509085005 | 10 | 0.0 | 1.6 | 0.00 | 0.00 | 0.00 | 88 | 1016.6 | |
| 20260509084525 | 10 | 0.0 | 1.6 | 0.00 | 0.00 | 0.00 | 88 | 1016.6 | |
| 20260509084005 | 10 | 0.0 | 1.6 | 0.00 | 0.00 | 0.00 | 87 | 1016.8 | |
| 20260509083525 | 10 | 0.0 | 1.6 | 0.00 | 0.00 | 0.00 | 87 | 1016.8 | |
| 20260509083004 | 10 | 0.0 | 1.6 | 0.00 | 0.00 | 0.00 | 87 | 1016.8 | |
| 20260509082525 | 10 | 0.0 | 1.6 | 0.00 | 0.00 | 0.00 | 87 | 1016.8 | |
| 20260509082005 | 10 | 0.0 | 1.6 | 0.00 | 0.00 | 0.00 | 87 | 1016.9 | |
| 20260509081504 | 10 | 0.0 | 1.6 | 0.00 | 0.00 | 0.00 | 86 | 1016.9 | |
| 20260509081005 | 10 | 0.0 | 3.2 | 0.00 | 0.00 | 0.00 | 86 | 1016.8 | |
| 20260509080504 | 10 | 0.0 | 3.2 | 0.00 | 0.00 | 0.00 | 86 | 1016.9 | |
| 20260509080006 | 10 | 0.0 | 1.6 | 0.00 | 0.00 | 0.00 | 86 | 1017.0 | |
| 20260509075505 | 10 | 0.0 | 1.6 | 0.00 | 0.00 | 0.00 | 86 | 1017.0 | |
| 20260509075004 | 10 | 0.0 | 1.6 | 0.00 | 0.00 | 0.00 | 86 | 1017.0 | |
| 20260509074505 | 11 | 0.0 | 1.6 | 0.00 | 0.00 | 0.00 | 86 | 1017.1 | |
| 20260509074004 | 11 | 0.0 | 1.6 | 0.00 | 0.00 | 0.00 | 86 | 1016.9 | |
| 20260509073504 | 11 | 0.0 | 1.6 | 0.00 | 0.00 | 0.00 | 86 | 1017.0 | |
| 20260509073004 | 11 | 0.0 | 1.6 | 0.00 | 0.00 | 0.00 | 86 | 1017.0 | |
| 20260509072504 | 11 | 0.0 | 1.6 | 0.00 | 0.00 | 0.00 | 86 | 1017.0 | |
| 20260509072004 | 11 | 0.0 | 1.6 | 0.00 | 0.00 | 0.00 | 86 | 1017.0 | |
| 20260509071505 | 11 | 0.0 | 1.6 | 0.00 | 0.00 | 0.00 | 85 | 1016.9 | |
| 20260509071004 | 11 | 0.0 | 1.6 | 0.00 | 0.00 | 0.00 | 85 | 1017.0 | |
| 20260509070504 | 11 | 0.0 | 1.6 | 0.00 | 0.00 | 0.00 | 85 | 1017.1 | |
| 20260509070006 | 11 | 0.0 | 1.6 | 0.00 | 0.00 | 0.00 | 85 | 1017.1 | |
| 20260509065504 | 11 | 0.0 | 1.6 | 0.00 | 0.00 | 0.00 | 84 | 1017.1 | |
| 20260509065004 | 11 | 0.0 | 1.6 | 0.00 | 0.00 | 0.00 | 84 | 1017.2 | |
| 20260509064504 | 11 | 0.0 | 1.6 | 0.00 | 0.00 | 0.00 | 84 | 1017.2 | |
| 20260509064004 | 11 | 0.0 | 1.6 | 0.00 | 0.00 | 0.00 | 84 | 1017.3 | |
| 20260509063504 | 11 | 0.0 | 1.6 | 0.00 | 0.00 | 0.00 | 84 | 1017.2 | |
| 20260509063005 | 12 | 0.0 | 1.6 | 0.00 | 0.00 | 0.00 | 84 | 1017.4 | |
| 20260509062504 | 12 | 0.0 | 1.6 | 0.00 | 0.00 | 0.00 | 84 | 1017.3 | |
| 20260509062004 | 12 | 0.0 | 1.6 | 0.00 | 0.00 | 0.00 | 83 | 1017.3 | |
| 20260509061504 | 12 | 0.0 | 3.2 | 0.00 | 0.00 | 0.00 | 83 | 1017.3 | |
| 20260509061024 | 12 | 0.0 | 1.6 | 0.00 | 0.00 | 0.00 | 83 | 1017.4 | |
| 20260509060504 | 12 | 0.0 | 1.6 | 0.00 | 0.00 | 0.00 | 83 | 1017.4 | |
| 20260509060004 | 12 | 0.0 | 1.6 | 0.00 | 0.00 | 0.00 | 83 | 1017.3 | |
| 20260509055504 | 12 | 338 | 1.6 | 3.2 | 0.00 | 0.00 | 0.00 | 83 | 1017.5 |
| 20260509055004 | 12 | 0.0 | 3.2 | 0.00 | 0.00 | 0.00 | 83 | 1017.5 | |
| 20260509054004 | 12 | 0.0 | 3.2 | 0.00 | 0.00 | 0.00 | 82 | 1017.4 | |
| 20260509053504 | 12 | 0.0 | 1.6 | 0.00 | 0.00 | 0.00 | 82 | 1017.5 | |
| 20260509053009 | 12 | 0.0 | 1.6 | 0.00 | 0.00 | 0.00 | 82 | 1017.5 | |
| 20260509052504 | 12 | 0.0 | 1.6 | 0.00 | 0.00 | 0.00 | 81 | 1017.5 | |
| 20260509052004 | 12 | 0.0 | 3.2 | 0.00 | 0.00 | 0.00 | 81 | 1017.5 | |
| 20260509051504 | 12 | 0.0 | 1.6 | 0.00 | 0.00 | 0.00 | 81 | 1017.5 | |
| 20260509051024 | 12 | 0.0 | 1.6 | 0.00 | 0.00 | 0.00 | 80 | 1017.5 | |
| 20260509050504 | 12 | 0.0 | 1.6 | 0.00 | 0.00 | 0.00 | 80 | 1017.6 | |
| 20260509050044 | 12 | 0.0 | 1.6 | 0.00 | 0.00 | 0.00 | 80 | 1017.6 | |
| 20260509045504 | 12 | 0.0 | 1.6 | 0.00 | 0.00 | 0.00 | 79 | 1017.5 | |
| 20260509045004 | 12 | 0.0 | 3.2 | 0.00 | 0.00 | 0.00 | 79 | 1017.4 | |
| 20260509044504 | 13 | 0.0 | 1.6 | 0.00 | 0.00 | 0.00 | 78 | 1017.3 | |
| 20260509044004 | 13 | 0.0 | 1.6 | 0.00 | 0.00 | 0.00 | 78 | 1017.3 | |
| 20260509043504 | 13 | 0.0 | 1.6 | 0.00 | 0.00 | 0.00 | 78 | 1017.3 | |
| 20260509043004 | 13 | 0.0 | 1.6 | 0.00 | 0.00 | 0.00 | 78 | 1017.3 | |
| 20260509042504 | 13 | 0.0 | 3.2 | 0.00 | 0.00 | 0.00 | 78 | 1017.2 | |
| 20260509042024 | 13 | 0.0 | 3.2 | 0.00 | 0.00 | 0.00 | 78 | 1017.2 | |
| 20260509041504 | 13 | 0.0 | 1.6 | 0.00 | 0.00 | 0.00 | 78 | 1017.1 | |
| 20260509041004 | 13 | 45 | 1.6 | 3.2 | 0.00 | 0.00 | 0.00 | 78 | 1017.1 |
| 20260509040524 | 13 | 0.0 | 1.6 | 0.00 | 0.00 | 0.00 | 77 | 1017.1 | |
| 20260509040004 | 13 | 0.0 | 3.2 | 0.00 | 0.00 | 0.00 | 77 | 1017.0 | |
| 20260509035524 | 13 | 45 | 1.6 | 3.2 | 0.00 | 0.00 | 0.00 | 77 | 1017.1 |
| 20260509035004 | 13 | 45 | 1.6 | 3.2 | 0.00 | 0.00 | 0.00 | 77 | 1017.0 |
| 20260509034504 | 13 | 45 | 1.6 | 4.8 | 0.00 | 0.00 | 0.00 | 77 | 1017.1 |
| 20260509034004 | 14 | 45 | 1.6 | 8.0 | 0.00 | 0.00 | 0.00 | 77 | 1017.0 |
| 20260509033504 | 14 | 45 | 3.2 | 4.8 | 0.00 | 0.00 | 0.00 | 76 | 1016.9 |
| 20260509033004 | 14 | 45 | 1.6 | 4.8 | 0.00 | 0.00 | 0.00 | 76 | 1017.0 |
| 20260509032505 | 14 | 45 | 1.6 | 4.8 | 0.00 | 0.00 | 0.00 | 76 | 1016.9 |
| 20260509032024 | 14 | 45 | 3.2 | 4.8 | 0.00 | 0.00 | 0.00 | 76 | 1016.9 |
| 20260509031504 | 15 | 45 | 3.2 | 6.4 | 0.00 | 0.00 | 0.00 | 76 | 1016.9 |
| 20260509031024 | 15 | 45 | 1.6 | 4.8 | 0.00 | 0.00 | 0.00 | 76 | 1016.9 |
| 20260509030524 | 15 | 45 | 1.6 | 6.4 | 0.00 | 0.00 | 0.00 | 76 | 1016.8 |
| 20260509030004 | 15 | 45 | 1.6 | 4.8 | 0.00 | 0.00 | 0.00 | 76 | 1016.9 |
| 20260509025504 | 15 | 45 | 1.6 | 4.8 | 0.00 | 0.00 | 0.00 | 76 | 1016.8 |
| 20260509025024 | 15 | 45 | 3.2 | 6.4 | 0.00 | 0.00 | 0.00 | 77 | 1016.7 |
| 20260509024524 | 15 | 45 | 3.2 | 6.4 | 0.00 | 0.00 | 0.00 | 77 | 1016.7 |
| 20260509024044 | 15 | 45 | 1.6 | 6.4 | 0.00 | 0.00 | 0.00 | 78 | 1016.7 |
| 20260509023504 | 15 | 45 | 3.2 | 8.0 | 0.00 | 0.00 | 0.00 | 77 | 1016.6 |
| 20260509023004 | 15 | 45 | 3.2 | 6.4 | 0.00 | 0.00 | 0.00 | 77 | 1016.6 |
| 20260509022504 | 16 | 45 | 3.2 | 6.4 | 0.00 | 0.00 | 0.00 | 76 | 1016.6 |
| 20260509022003 | 16 | 45 | 3.2 | 6.4 | 0.00 | 0.00 | 0.00 | 75 | 1016.5 |
| 20260509021503 | 16 | 45 | 3.2 | 8.0 | 0.00 | 0.00 | 0.00 | 75 | 1016.4 |
| 20260509021003 | 16 | 45 | 3.2 | 11.3 | 0.00 | 0.00 | 0.00 | 75 | 1016.5 |
| 20260509020503 | 16 | 45 | 3.2 | 11.3 | 0.00 | 0.00 | 0.00 | 75 | 1016.4 |
| 20260509020003 | 16 | 45 | 4.8 | 11.3 | 0.00 | 0.00 | 0.00 | 75 | 1016.3 |
| 20260509015504 | 16 | 45 | 4.8 | 9.7 | 0.00 | 0.00 | 0.00 | 74 | 1016.4 |
| 20260509015004 | 16 | 45 | 3.2 | 8.0 | 0.00 | 0.00 | 0.00 | 75 | 1016.4 |
| 20260509014504 | 16 | 45 | 4.8 | 9.7 | 0.00 | 0.00 | 0.00 | 74 | 1016.5 |
| 20260509014024 | 17 | 45 | 3.2 | 11.3 | 0.00 | 0.00 | 0.00 | 74 | 1016.4 |
| 20260509013503 | 17 | 45 | 4.8 | 12.9 | 0.00 | 0.00 | 0.00 | 74 | 1016.5 |
| 20260509013004 | 17 | 45 | 4.8 | 14.5 | 0.00 | 0.00 | 0.00 | 74 | 1016.4 |
| 20260509012523 | 17 | 45 | 6.4 | 12.9 | 0.00 | 0.00 | 0.00 | 73 | 1016.5 |
| 20260509012003 | 17 | 45 | 4.8 | 12.9 | 0.00 | 0.00 | 0.00 | 72 | 1016.3 |
| 20260509011503 | 17 | 23 | 6.4 | 14.5 | 0.00 | 0.00 | 0.00 | 72 | 1016.5 |
| 20260509011004 | 17 | 45 | 6.4 | 11.3 | 0.00 | 0.00 | 0.00 | 72 | 1016.4 |
| 20260509010503 | 18 | 45 | 6.4 | 11.3 | 0.00 | 0.00 | 0.00 | 71 | 1016.5 |
| 20260509010004 | 18 | 45 | 6.4 | 12.9 | 0.00 | 0.00 | 0.00 | 71 | 1016.6 |
| 20260509005503 | 18 | 45 | 4.8 | 9.7 | 0.00 | 0.00 | 0.00 | 70 | 1016.5 |
| 20260509005003 | 18 | 45 | 4.8 | 11.3 | 0.00 | 0.00 | 0.00 | 70 | 1016.5 |
| 20260509004504 | 18 | 45 | 4.8 | 11.3 | 0.00 | 0.00 | 0.00 | 69 | 1016.6 |
| 20260509004024 | 19 | 45 | 4.8 | 11.3 | 0.00 | 0.00 | 0.00 | 69 | 1016.7 |
| 20260509003503 | 19 | 45 | 4.8 | 11.3 | 0.00 | 0.00 | 0.00 | 68 | 1016.6 |
| 20260509003003 | 19 | 45 | 4.8 | 11.3 | 0.00 | 0.00 | 0.00 | 67 | 1016.8 |
| 20260509002503 | 20 | 45 | 4.8 | 12.9 | 0.00 | 0.00 | 0.00 | 66 | 1016.7 |
| 20260509002004 | 20 | 45 | 4.8 | 11.3 | 0.00 | 0.00 | 0.00 | 66 | 1016.7 |
| 20260509001503 | 20 | 338 | 4.8 | 11.3 | 0.00 | 0.00 | 0.00 | 65 | 1016.8 |
| 20260509001004 | 19 | 338 | 6.4 | 14.5 | 0.00 | 0.00 | 0.00 | 67 | 1016.9 |
| 20260509000503 | 19 | 45 | 4.8 | 11.3 | 0.00 | 0.00 | 0.00 | 68 | 1016.8 |
| 20260509000004 | 19 | 45 | 4.8 | 14.5 | 0.00 | 0.00 | 0.00 | 69 | 1016.8 |
| 20260508235503 | 19 | 45 | 6.4 | 11.3 | 0.00 | 0.00 | 0.00 | 68 | 1016.7 |
| 20260508235023 | 19 | 45 | 4.8 | 14.5 | 0.00 | 0.00 | 0.00 | 68 | 1016.9 |
| 20260508234503 | 19 | 45 | 6.4 | 16.1 | 0.00 | 0.00 | 0.00 | 68 | 1016.8 |
| 20260508234003 | 19 | 45 | 6.4 | 17.7 | 0.00 | 0.00 | 0.00 | 68 | 1016.9 |
| 20260508233503 | 19 | 45 | 4.8 | 12.9 | 0.00 | 0.00 | 0.00 | 67 | 1017.0 |
| 20260508233023 | 19 | 45 | 4.8 | 12.9 | 0.00 | 0.00 | 0.00 | 68 | 1016.9 |
| 20260508232503 | 19 | 45 | 6.4 | 17.7 | 0.00 | 0.00 | 0.00 | 68 | 1017.0 |
| 20260508232003 | 19 | 45 | 6.4 | 14.5 | 0.00 | 0.00 | 0.00 | 68 | 1017.0 |
| 20260508231503 | 19 | 45 | 6.4 | 14.5 | 0.00 | 0.00 | 0.00 | 68 | 1017.0 |
| 20260508231003 | 19 | 45 | 6.4 | 14.5 | 0.00 | 0.00 | 0.00 | 67 | 1017.0 |
| 20260508230503 | 19 | 45 | 6.4 | 12.9 | 0.00 | 0.00 | 0.00 | 67 | 1017.1 |
| 20260508230003 | 20 | 45 | 4.8 | 17.7 | 0.00 | 0.00 | 0.00 | 67 | 1017.3 |
| 20260508225503 | 20 | 45 | 6.4 | 14.5 | 0.00 | 0.00 | 0.00 | 67 | 1017.3 |
| 20260508225003 | 20 | 338 | 6.4 | 20.9 | 0.00 | 0.00 | 0.00 | 66 | 1017.4 |
| 20260508224503 | 20 | 338 | 4.8 | 11.3 | 0.00 | 0.00 | 0.00 | 67 | 1017.4 |
| 20260508224003 | 20 | 45 | 6.4 | 12.9 | 0.00 | 0.00 | 0.00 | 66 | 1017.5 |
| 20260508223523 | 19 | 45 | 6.4 | 12.9 | 0.00 | 0.00 | 0.00 | 67 | 1017.5 |
| 20260508223003 | 19 | 45 | 6.4 | 16.1 | 0.00 | 0.00 | 0.00 | 69 | 1017.5 |
| 20260508222503 | 19 | 45 | 4.8 | 16.1 | 0.00 | 0.00 | 0.00 | 69 | 1017.7 |
| 20260508222023 | 18 | 45 | 6.4 | 16.1 | 0.00 | 0.00 | 0.00 | 69 | 1017.9 |
| 20260508221503 | 18 | 45 | 4.8 | 12.9 | 0.00 | 0.00 | 0.00 | 69 | 1017.9 |
| 20260508221003 | 18 | 45 | 6.4 | 17.7 | 0.00 | 0.00 | 0.00 | 69 | 1018.1 |
| 20260508220503 | 18 | 45 | 4.8 | 14.5 | 0.00 | 0.00 | 0.00 | 69 | 1018.0 |
| 20260508220003 | 18 | 45 | 4.8 | 12.9 | 0.00 | 0.00 | 0.00 | 70 | 1018.0 |
| 20260508215503 | 18 | 45 | 6.4 | 14.5 | 0.00 | 0.00 | 0.00 | 70 | 1018.1 |
| 20260508215023 | 18 | 45 | 4.8 | 12.9 | 0.00 | 0.00 | 0.00 | 70 | 1018.1 |
| 20260508214503 | 18 | 68 | 6.4 | 14.5 | 0.00 | 0.00 | 0.00 | 70 | 1018.3 |
| 20260508214003 | 18 | 45 | 6.4 | 14.5 | 0.00 | 0.00 | 0.00 | 69 | 1018.3 |
| 20260508213543 | 18 | 45 | 4.8 | 14.5 | 0.00 | 0.00 | 0.00 | 69 | 1018.3 |
| 20260508213003 | 18 | 45 | 6.4 | 12.9 | 0.00 | 0.00 | 0.00 | 69 | 1018.4 |
| 20260508212503 | 18 | 45 | 4.8 | 12.9 | 0.00 | 0.00 | 0.00 | 71 | 1018.5 |
| 20260508212003 | 18 | 45 | 6.4 | 14.5 | 0.00 | 0.00 | 0.00 | 70 | 1018.6 |
| 20260508211504 | 18 | 45 | 6.4 | 16.1 | 0.00 | 0.00 | 0.00 | 69 | 1018.6 |
| 20260508211023 | 18 | 45 | 6.4 | 14.5 | 0.00 | 0.00 | 0.00 | 71 | 1018.6 |
| 20260508210503 | 18 | 45 | 4.8 | 11.3 | 0.00 | 0.00 | 0.00 | 71 | 1018.8 |
| 20260508210003 | 18 | 68 | 6.4 | 14.5 | 0.00 | 0.00 | 0.00 | 72 | 1018.8 |
| 20260508205503 | 18 | 45 | 4.8 | 14.5 | 0.00 | 0.00 | 0.00 | 72 | 1019.0 |
| 20260508205023 | 17 | 45 | 6.4 | 14.5 | 0.00 | 0.00 | 0.00 | 73 | 1019.0 |
| 20260508204503 | 17 | 68 | 6.4 | 17.7 | 0.00 | 0.00 | 0.00 | 74 | 1019.0 |
| 20260508204003 | 17 | 45 | 6.4 | 16.1 | 0.00 | 0.00 | 0.00 | 73 | 1019.1 |